Regional Weather Roundup
Issued by NWS

Home | Current Version | Previous Version | Graphics & Text | Print | Product List | Glossary On
Versions: 1 2 3 4 5 6 7 8 9 10 11 12 13 14 15 16 17 18 19 20 21 22 23 24 25 26 27 28 29 30 31 32 33 34 35 36 37 38 39 40 41 42 43 44 45 46 47 48 49 50
000
ASUS43 KFSD 251502
RWRSD

WEATHER ROUNDUP FOR SOUTH DAKOTA
NATIONAL WEATHER SERVICE SIOUX FALLS SD
1000 AM CDT SAT APR 25 2015

NOTE: "FAIR" INDICATES FEW OR NO CLOUDS BELOW 12,000 FEET WITH NO
SIGNIFICANT WEATHER AND/OR OBSTRUCTIONS TO VISIBILITY.


SDZ001>005-009-010-012>017-251600-
NORTHWEST AND NORTH CENTRAL SOUTH DAKOTA

CITY           SKY/WX    TMP DP  RH WIND       PRES   REMARKS
BUFFALO          N/A     44  43  96 E9        29.64S
FAITH            N/A     44  42  93 E8        29.74R
MOBRIDGE       CLOUDY    46  42  86 E13       29.74R
$$

SDZ012>016-024>037-041>051-057-063-072>074-251600-
SOUTHWEST AND SOUTH CENTRAL SOUTH DAKOTA

CITY           SKY/WX    TMP DP  RH WIND       PRES   REMARKS
RAPID CTY ARPT FOG       44  44 100 SW3       29.70S VSB 1
PIERRE         CLOUDY    46  45  96 E13       29.73R FOG
CUSTER         SUNNY     50  40  68 VRB3      29.72R
ELLSWORTH AFB  CLOUDY    46  45  99 S3        29.69
PHILIP         CLOUDY    48  46  93 E12       29.72R FOG
PINE RIDGE     FOG       45  43  93 W7        29.69F VSB 1/4
WINNER         FOG       51  48  89 E13       29.71R VSB 3/4
$$

SDZ004>011-016>023-039-040-251600-
NORTHEAST SOUTH DAKOTA

CITY           SKY/WX    TMP DP  RH WIND       PRES   REMARKS
ABERDEEN       CLOUDY    46  42  86 E12       29.80R
WATERTOWN      CLOUDY    42  39  89 E14       29.78R FOG
BROOKINGS      CLOUDY    45  39  81 E15       29.77R
SISSETON         N/A     43  42  97 SE14      29.82R
$$

SDZ017-020-022-023-036>040-048>070-251600-
SOUTHEAST SOUTH DAKOTA

CITY           SKY/WX    TMP DP  RH WIND       PRES   REMARKS
SIOUX FALLS    CLOUDY    47  40  76 E16       29.73S
HURON          CLOUDY    47  43  86 E10       29.76R FOG
MITCHELL       CLOUDY    48  45  89 E10       29.75R FOG
YANKTON        CLOUDY    46  39  76 E17G24    29.71R
$$

ABBREVIATIONS USED IN REMARKS
   TC - TEMPERATURE IN CELSIUS
  WCI - WIND CHILL INDEX
   HX - HEAT INDEX
  VSB - VISIBILITY




USA.gov is the U.S. government's official web portal to all federal, state and local government web resources and services.